EHI
0 0 1 1 2 5 6 6 4 5 6 7 5 5 6 6 7 6 4 2 1 0 0 1 2 2 1 0 0 0 0 0 0 0 0 0 0 0 0 1 1 1 0
0 1 1 2 3 4 5 4 4 4 5 6 6 5 5 4 6 6 4 1 0 0 0 0 1 2 1 0 0 0 0 0 0 0 0 0 0 0 0 1 2 1 0
0 1 2 3 3 4 4 3 3 4 5 6 6 4 2 2 2 3 2 1 1 1 0 0 0 1 1 1 1 0 0 0 0 1 0 0 0 0 0 1 2 2 1
0 1 2 3 4 5 3 2 2 3 4 5 4 2 0 0 0 1 1 1 1 1 1 0 0 0 0 1 1 0 0 0 0 0 0 0 0 0 0 0 1 1 0
0 0 1 3 4 4 2 1 1 2 2 2 1 0 0 0 0 0 0 0 1 1 1 0 0 0 0 1 1 0 0 0 0 0 0 0 0 0 0 0 0 0 0
0 0 1 2 3 3 2 0 0 0 0 0 0 0 0 0 0 0 0 0 0 1 1 1 1 1 0 0 0 0 1 0 0 0 0 0 0 0 1 0 0 0 0
0 0 0 1 1 2 2 1 0 0 0 0 0 0 0 0 0 0 0 1 1 2 2 2 2 2 1 1 0 0 1 1 0 0 0 0 0 0 0 0 0 0 0
0 0 0 0 0 2 3 2 1 0 0 0 0 0 0 0 0 0 0 1 2 3 3 3 3 3 3 2 1 1 1 1 0 0 0 0 0 0 0 0 0 0 0
0 0 0 0 0 1 2 2 1 0 0 0 0 1 1 0 0 0 0 1 2 3 3 3 3 3 3 3 2 1 1 1 0 0 0 0 0 0 0 0 0 0 0
0 0 0 0 0 1 1 1 0 0 0 0 0 1 1 0 0 0 0 0 1 1 2 3 3 2 2 2 2 2 1 0 0 0 0 0 0 0 0 0 0 0 0
0 0 0 0 0 0 0 0 0 0 0 0 0 1 1 0 0 0 0 0 0 0 1 2 1 1 1 1 1 1 1 0 0 0 0 0 0 0 0 0 0 1 1
0 0 0 0 0 0 0 0 0 0 0 0 0 0 0 0 0 0 0 0 0 0 0 0 0 0 0 0 0 0 0 0 0 0 1 1 1 0 0 0 1 2 2
0 0 0 0 0 0 0 0 0 0 0 0 0 0 0 0 0 0 0 0 0 0 0 0 0 0 0 0 0 0 0 0 0 0 1 2 2 1 0 0 1 2 3
0 0 0 0 0 0 0 0 0 0 0 0 0 0 0 0 0 0 0 0 0 0 0 0 0 0 0 0 0 0 0 0 0 0 1 2 3 2 1 0 1 2 3
0 0 0 0 0 0 0 0 0 0 0 0 0 0 0 0 0 0 0 0 0 0 0 0 0 0 0 0 0 0 0 0 0 0 0 1 3 3 1 1 1 3 3
0 0 0 0 0 0 0 0 0 0 0 0 0 0 0 0 0 0 0 0 0 0 0 0 0 0 0 0 0 0 0 0 0 0 0 1 3 3 2 2 3 3 3
0 0 0 0 0 0 0 0 0 0 0 0 0 0 0 0 0 0 0 0 0 0 0 0 0 0 0 0 0 0 0 0 0 0 0 0 1 1 2 3 3 3 3
0 0 0 0 0 0 0 0 0 0 0 0 0 0 0 0 0 0 0 0 0 0 0 0 0 0 0 0 0 0 0 0 0 0 0 0 0 0 1 1 3 3 3
0 0 0 0 0 0 0 0 0 0 0 0 0 0 0 0 0 0 0 0 0 0 0 0 0 0 0 0 0 0 0 0 0 0 0 0 0 0 0 1 2 3 3
0 0 0 0 0 0 0 0 0 0 0 0 0 0 0 0 0 0 0 0 0 0 0 0 0 0 0 0 0 0 0 0 0 0 0 0 0 0 0 0 1 1 2
1 0 0 0 0 0 0 0 0 0 0 0 0 0 0 0 0 0 0 0 0 0 0 0 0 0 0 0 0 0 0 0 0 0 0 0 0 0 0 0 0 0 1
2 1 1 1 0 0 0 0 0 0 0 0 0 0 0 0 0 0 0 0 0 0 0 0 0 0 0 0 0 0 0 0 0 0 0 0 0 0 0 0 0 0 0
2 2 2 2 1 0 0 0 0 0 0 0 0 0 0 0 0 0 0 0 0 0 0 0 0 0 0 0 0 0 0 0 0 0 0 0 0 0 0 0 0 0 0
2 3 3 3 2 1 0 0 0 0 0 0 0 0 0 0 0 0 0 0 0 0 0 0 0 0 0 0 0 0 0 0 0 0 0 0 0 0 0 0 0 0 0
1 2 3 3 3 1 0 0 0 0 0 0 0 0 0 0 0 0 0 0 0 0 0 0 0 0 0 0 0 0 0 0 0 0 0 0 0 0 0 0 0 0 0
1 2 3 3 3 2 1 0 0 0 0 0 0 0 0 0 0 0 0 0 0 0 0 0 0 0 0 0 0 0 0 0 0 0 0 0 0 0 0 0 0 0 0
Wind_Speed
1 2 9 10 12 12 13 13 13 13 13 14 14 13 13 13 12 12 12 11 11 11 10 10 10 9 9 9 8 8 7 7 6 6 6 6 6 6 7 7 7 4 6
3 3 10 11 12 12 13 13 13 13 13 13 13 13 12 12 12 11 11 11 11 10 10 10 9 9 8 8 7 7 7 7 6 5 5 5 5 6 7 7 7 4 7
5 5 8 12 12 12 13 13 13 13 12 12 12 12 11 11 11 11 11 10 10 10 9 9 9 8 8 7 7 7 7 7 6 6 5 2 3 6 6 7 7 7 7
7 5 8 12 12 12 12 12 12 12 12 12 11 11 11 11 11 11 10 10 10 9 9 8 8 7 7 7 7 7 7 7 6 5 3 2 2 6 6 6 6 7 7
6 5 8 12 12 12 12 12 12 12 11 11 11 10 10 10 10 10 10 9 9 8 8 8 7 7 7 7 7 7 7 7 5 4 2 2 1 5 6 6 6 6 6
6 5 7 12 12 12 12 11 11 11 10 10 10 10 10 10 9 9 8 8 7 7 7 7 6 6 6 6 7 7 7 6 4 2 2 1 1 4 6 6 5 5 5
6 5 6 11 12 11 11 11 10 10 10 9 9 9 8 8 8 7 7 7 6 6 6 6 6 6 6 7 7 7 7 6 3 2 1 1 1 4 5 5 5 4 5
7 5 6 11 11 11 10 10 9 9 8 8 7 6 6 6 6 6 6 5 5 5 5 5 5 6 6 6 7 7 7 5 3 2 1 1 2 4 4 5 4 4 4
6 5 4 4 6 9 9 9 8 7 6 6 5 4 3 3 3 4 4 4 4 5 5 5 5 6 6 6 7 7 7 6 3 1 2 1 3 4 4 4 4 3 3
5 4 4 3 3 2 3 6 6 5 4 3 3 2 2 2 1 1 2 3 4 4 5 5 5 6 6 7 7 7 6 4 2 1 1 1 4 4 5 5 4 3 3
4 3 3 3 3 2 2 3 3 3 2 2 2 2 2 2 2 2 2 3 4 5 6 7 7 7 6 6 7 7 4 1 1 1 0 2 4 4 4 4 4 3 3
5 4 3 3 3 2 2 1 1 1 1 1 1 2 1 1 1 2 3 5 6 7 7 8 8 7 5 3 5 5 2 1 1 0 0 3 3 4 4 4 3 3 3
5 5 4 4 4 3 1 1 1 1 1 1 2 2 2 2 2 2 2 3 4 5 4 5 5 3 3 2 3 2 2 1 1 1 0 2 2 3 3 3 3 3 3
5 5 4 4 3 3 3 2 1 1 1 1 2 3 3 2 2 2 2 2 2 2 3 3 3 4 4 3 3 3 3 1 1 0 1 1 2 2 1 2 2 3 3
6 5 4 5 4 3 3 2 2 2 2 2 2 3 3 3 2 2 2 2 3 2 2 3 3 4 4 3 3 3 3 2 2 1 1 1 0 0 0 1 2 2 3
6 5 4 5 4 4 3 3 2 2 2 3 3 4 4 3 3 3 3 3 3 3 2 2 3 3 3 2 3 3 3 2 2 2 1 2 2 1 1 1 2 2 3
6 6 6 5 5 5 4 3 3 2 3 3 3 4 4 4 4 3 3 3 3 3 4 3 4 3 4 4 4 3 2 2 2 2 2 2 2 2 2 2 2 3 3
6 6 5 6 6 5 4 4 3 3 3 3 3 4 5 5 4 4 3 3 3 3 3 3 3 3 4 3 3 3 3 3 3 2 2 2 2 2 2 3 3 3 3
7 7 6 5 5 4 4 4 3 3 3 3 3 3 4 5 5 4 3 3 4 4 4 4 4 3 3 3 3 3 3 3 3 3 3 3 3 2 2 3 4 4 4
6 6 6 5 4 4 4 3 3 3 2 2 3 3 4 4 4 4 3 4 4 4 4 4 4 3 2 2 3 4 3 3 3 4 3 3 3 3 2 3 2 3 4
5 6 5 5 4 3 3 2 2 2 1 2 2 3 4 4 4 4 3 4 4 3 3 4 3 4 4 3 3 4 4 4 4 4 4 4 4 4 3 3 2 2 2
7 6 6 5 4 4 3 2 2 2 1 1 1 3 3 4 4 4 4 3 3 3 5 5 4 3 3 4 2 3 4 5 5 5 4 4 5 4 4 5 3 3 2
7 7 6 5 5 4 4 3 3 3 3 3 3 2 3 3 4 4 4 3 3 3 3 3 3 3 3 3 3 3 2 1 3 4 4 4 5 4 4 4 5 4 3
8 7 7 6 5 4 5 5 5 3 2 1 0 1 2 3 3 4 4 4 3 3 3 3 3 2 3 3 3 2 1 2 1 3 4 4 5 4 5 4 4 4 4
8 7 7 6 5 4 5 6 6 4 2 1 1 2 2 2 3 3 3 3 3 3 3 3 4 4 2 2 2 2 2 2 2 1 2 4 4 3 4 3 3 4 4
6 7 7 7 5 4 5 5 6 5 4 3 2 1 1 2 2 3 3 3 3 2 3 3 3 4 3 3 2 2 2 1 1 1 0 2 3 4 4 3 3 4 3
Wind_Direction
33 86 92 92 94 93 93 93 91 90 88 85 83 81 79 77 76 75 73 72 69 66 64 63 62 60 57 55 53 49 49 52 56 63 66 64 63 65 64 63 61 57 66
129 95 94 95 96 96 95 93 91 89 87 85 83 81 79 77 74 73 72 70 67 64 61 59 58 56 53 49 44 41 40 43 48 56 65 59 66 73 70 66 63 61 64
113 96 94 96 97 96 95 93 91 88 86 85 83 81 79 76 73 71 70 69 67 64 62 58 54 51 49 44 38 34 33 33 39 51 65 52 72 82 77 68 63 63 63
116 105 101 100 100 99 96 93 91 88 85 84 83 81 79 77 74 72 69 67 65 62 60 56 53 48 43 39 35 29 25 24 33 55 58 49 67 90 82 73 67 65 63
110 107 109 105 104 100 97 94 92 89 86 84 83 81 80 78 73 70 68 66 64 61 59 54 49 42 36 31 26 22 20 23 41 60 60 56 56 93 87 78 68 64 64
117 118 119 114 109 105 101 97 94 92 89 87 85 83 81 78 73 69 67 65 61 58 54 50 41 33 24 18 16 16 17 20 39 52 59 75 100 103 95 85 72 64 62
128 129 127 120 114 110 107 104 101 97 94 92 89 87 84 80 76 71 67 63 59 52 47 39 27 20 13 7 7 11 13 18 38 44 46 83 121 108 99 89 75 65 61
136 131 128 125 121 118 114 110 105 102 100 98 93 92 90 84 79 74 69 63 58 51 42 31 17 6 1 357 356 359 8 17 33 59 43 87 124 110 99 89 76 63 58
134 131 126 128 125 125 120 116 112 108 104 98 92 90 92 84 81 75 64 55 49 41 28 16 6 357 353 349 348 353 7 26 33 47 73 90 110 105 91 83 72 57 47
135 137 138 133 125 124 122 125 121 116 109 96 79 70 64 45 42 40 38 23 21 22 12 3 359 355 353 353 355 360 12 32 30 34 59 127 114 101 89 82 67 49 33
143 149 144 147 150 153 162 154 127 113 93 59 21 19 39 5 334 328 346 3 5 8 6 4 3 0 357 355 355 2 23 41 34 54 123 130 119 104 91 80 66 45 28
159 168 160 164 171 174 175 119 40 20 18 16 352 0 25 8 346 355 347 6 10 11 8 12 11 7 7 358 358 9 27 45 38 10 152 137 124 109 95 83 65 43 26
163 157 160 167 166 159 140 118 73 36 30 16 10 36 52 40 19 18 3 357 3 12 4 2 6 5 7 6 7 16 26 49 36 343 262 160 143 121 104 89 64 37 18
132 144 155 147 137 136 120 109 101 77 55 38 26 50 63 54 35 21 18 356 1 357 357 3 359 0 10 15 20 30 35 42 37 344 288 204 167 149 114 80 53 31 20
119 130 135 128 127 121 103 95 88 78 63 44 38 44 63 64 52 37 24 20 11 10 10 7 7 10 16 14 19 29 28 31 33 25 346 351 294 203 99 32 33 28 19
125 129 122 117 120 110 103 101 96 80 69 57 49 49 58 63 59 48 36 25 14 8 11 21 21 22 19 18 14 15 23 20 31 28 11 347 335 338 330 336 356 7 9
135 129 125 123 111 106 107 105 97 86 76 63 54 54 55 55 57 55 44 26 8 10 21 26 21 25 25 23 14 8 24 22 20 8 9 355 333 328 337 339 352 357 3
140 130 125 121 110 108 109 104 96 88 80 67 61 52 49 51 58 57 47 24 11 22 23 26 22 21 18 13 8 6 16 16 12 7 15 9 358 360 353 351 0 2 9
142 132 123 121 118 112 104 95 87 83 73 63 60 54 49 49 55 62 49 25 25 31 22 21 28 24 17 5 3 18 13 14 7 25 25 17 15 9 353 355 7 11 23
141 134 129 123 119 109 94 84 71 62 51 48 54 53 54 50 53 57 49 31 33 36 23 22 24 20 18 2 17 18 4 7 18 26 23 22 21 21 18 5 1 356 14
139 134 134 129 132 119 105 104 98 85 55 42 43 55 57 54 53 58 48 35 35 42 30 25 24 21 12 7 34 7 355 11 27 20 17 25 22 14 17 13 12 0 352
150 145 142 139 139 136 137 141 135 129 109 83 35 41 43 49 48 59 56 45 38 40 32 28 35 30 15 25 64 53 9 355 355 7 12 21 12 10 16 18 11 8 1
158 160 154 151 146 140 127 107 86 67 48 36 25 16 10 40 51 55 56 57 46 52 44 32 39 56 34 15 45 100 95 340 323 337 3 14 6 9 3 4 18 11 13
168 163 154 151 145 138 126 120 124 126 133 173 182 30 22 31 46 52 57 62 58 53 47 36 49 51 65 30 13 37 103 158 110 335 335 349 3 12 0 6 6 3 5
162 157 153 144 139 138 132 131 129 128 140 131 93 66 34 16 25 41 55 60 56 50 49 45 46 48 60 67 41 21 36 42 70 114 331 333 343 344 349 352 359 356 357
154 150 147 142 144 148 141 138 138 140 137 122 109 90 24 6 5 16 49 56 54 52 50 49 50 52 53 59 55 52 65 60 23 89 312 319 324 318 333 348 3 353 353